Tracking 23757 objects as of 24-Oct-2021
HD Live streaming from Space Station
objects crossing your sky now

FREGAT DEB

Track FREGAT DEB now!
10-day predictions


NORAD ID: 45850
Int'l Code: 2011-037CL
Perigee: 635.3 km
Apogee: 2,806.0 km
Inclination: 51.0 °
Period: 120.7 minutes
Semi major axis: 8091 km
RCS: Unknown
Launch date: July 18, 2011
Source: Commonwealth of Independent States (former USSR) (CIS)
Launch site: TYURATAM MISSILE AND SPACE COMPLEX (TTMTR)

Note: This is SATELLITE DEBRIS
aabbcc
Your satellite tracking list
Your tracking list is empty




NASA's NSSDC Master Catalog

Two Line Element Set (TLE):
1 45850U 11037CL  21297.42771393 -.00001873  00000-0 -15305-2 0  9998
2 45850  51.0201  78.7491 1341361  16.9998 347.1602 11.92741718 60123
Source of the keplerian elements: AFSPC